Location: Unspecified
(0.0000°N, 0.0000°E)
Time: 17:19:57
(UTC+00:00)

STARLINK 1053 - Pass Details

Date: 19 January 2020
Orbit: 549 x 551 km, 53.0° (Epoch: 23 January)

Event Time Altitude Azimuth Distance (km) Brightness Sun altitude
Rises 05:18:13 0° 196° (SSW) 2,734 7.2 -12.2°
Reaches altitude 10° 05:20:42 10° 185° (S) 1,835 6.5 -11.7°
Maximum altitude 05:24:19 29° 124° (SE) 1,040 5.9 -10.8°
Drops below altitude 10° 05:27:55 10° 64° (ENE) 1,822 6.9 -10.0°
Sets 05:30:21 0° 52° (NE) 2,711 7.6 -9.4°
